Sioux Falls, SD

11:22 AM CST on February 23, 2017 (GMT -0600)
Foss

Weather History for KFSD - June, 2013

Change the Weather History Date:

Thursday, June 6, 2013

  Actual Average Record
Temperature  
Mean Temperature 57 °F 65 °F  
Max Temperature 67 °F 76 °F 100 °F (1933)
Min Temperature 47 °F 53 °F 33 °F (1897)
Degree Days  
Heating Degree Days 8 3  
Month to date heating degree days 42 21  
Since 1 June heating degree days 42 21  
Since 1 July heating degree days 7857 7676  
Cooling Degree Days 0 3  
Month to date cooling degree days 0 14  
Year to date cooling degree days 42 50  
Since 1 June cooling degree days 0 14  
Growing Degree Days 8 (Base 50)    
Moisture  
Dew Point 51 °F    
Average Humidity 80    
Maximum Humidity 100    
Minimum Humidity 60    
Precipitation  
Precipitation 0.00 in 0.13 in 4.13 in (1896)
Month to date precipitation 0.47 0.76  
Year to date precipitation 12.78 10.09  
Snow  
Snow 0.00 in 0.00 in 0.00 in ()
Month to date snowfall 0.0 0.0  
Since 1 June snowfall 0.0 0.0  
Since 1 July snowfall 43.3 44.5  
Snow Depth 0.00 in    
Sea Level Pressure  
Sea Level Pressure 30.02 in    
Wind  
Wind Speed 6 mph (North)    
Max Wind Speed 14 mph    
Max Gust Speed 17 mph    
Visibility 10 miles    
Events      
T = Trace of Precipitation, MM = Missing Value Source: NWS Daily Summary

Daily Weather History Graph

Daily Weather History Graph

Search for Another Location

Airport or City:

Trip Planner

Search our weather history database for the weather conditions in past years. The results will help you decide how hot, cold, wet, or windy it might be!

Date:

Astronomy

Jun. 06, 2013 Rise Set
Actual Time 5:46 AM CDT 9:05 PM CDT
Civil Twilight 5:11 AM CDT 9:40 PM CDT
Nautical Twilight 4:25 AM CDT 10:26 PM CDT
Astronomical Twilight 3:28 AM CDT 11:23 PM CDT
Moon 4:32 AM CDT (6/6) 7:25 PM CDT (6/6)
Length of Visible Light 16h 29m
Length of Day
15h 18m
Waning Crescent, 3% of the Moon is Illuminated
Jun 6
Waning Crescent
Jun 8
New
Jun 16
First Quarter
Jun 23
Full
Jun 29
Last Quarter

Hourly Weather History & Observations

Time (CDT) Temp. Dew Point Humidity Pressure Visibility Wind Dir Wind Speed Gust Speed Precip Events Conditions
12:56 AM 55.9 °F 53.1 °F 90% 30.01 in 10.0 mi North 4.6 mph - N/A   Overcast
1:56 AM 55.9 °F 53.1 °F 90% 30.01 in 10.0 mi NW 4.6 mph - N/A   Overcast
2:56 AM 55.0 °F 53.1 °F 93% 30.00 in 10.0 mi NNW 5.8 mph - N/A   Overcast
3:56 AM 52.0 °F 50.0 °F 93% 29.99 in 10.0 mi North 6.9 mph - N/A   Partly Cloudy
4:56 AM 50.0 °F 48.9 °F 96% 29.99 in 10.0 mi NNW 5.8 mph - N/A   Clear
5:17 AM 50.0 °F 48.2 °F 94% 29.99 in 10.0 mi NNW 5.8 mph - N/A   Mostly Cloudy
5:56 AM 51.1 °F 50.0 °F 96% 30.00 in 9.0 mi NNW 6.9 mph - N/A   Overcast
6:10 AM 51.8 °F 50.0 °F 94% 29.99 in 10.0 mi NNW 6.9 mph - N/A   Overcast
6:27 AM 51.8 °F 50.0 °F 94% 29.99 in 9.0 mi North 5.8 mph - N/A   Scattered Clouds
6:56 AM 53.1 °F 51.1 °F 93% 30.00 in 10.0 mi NNW 5.8 mph - N/A   Partly Cloudy
7:56 AM 57.0 °F 53.1 °F 87% 30.01 in 10.0 mi North 6.9 mph - N/A   Mostly Cloudy
8:56 AM 59.0 °F 53.1 °F 81% 30.01 in 10.0 mi North 5.8 mph - N/A   Mostly Cloudy
9:56 AM 57.9 °F 51.1 °F 78% 30.03 in 10.0 mi NNE 8.1 mph - N/A   Overcast
10:09 AM 59.0 °F 51.8 °F 77% 30.02 in 10.0 mi NNE 5.8 mph - N/A   Overcast
10:30 AM 59.0 °F 51.8 °F 77% 30.02 in 10.0 mi North 4.6 mph - N/A   Overcast
10:51 AM 57.2 °F 51.8 °F 82% 30.03 in 10.0 mi NNE 10.4 mph - N/A   Overcast
10:56 AM 57.0 °F 52.0 °F 83% 30.03 in 10.0 mi NE 11.5 mph - N/A   Overcast
11:56 AM 57.9 °F 52.0 °F 81% 30.04 in 10.0 mi NE 9.2 mph - N/A   Overcast
12:56 PM 61.0 °F 53.1 °F 75% 30.03 in 10.0 mi NNE 8.1 mph - N/A   Overcast
1:20 PM 62.6 °F 53.6 °F 72% 30.02 in 10.0 mi NE 8.1 mph - N/A   Mostly Cloudy
1:47 PM 62.6 °F 53.6 °F 72% 30.02 in 10.0 mi NNE 6.9 mph - N/A   Mostly Cloudy
1:56 PM 64.0 °F 53.1 °F 67% 30.02 in 10.0 mi Variable 5.8 mph - N/A   Mostly Cloudy
2:29 PM 62.6 °F 51.8 °F 68% 30.02 in 10.0 mi NNE 5.8 mph - N/A   Mostly Cloudy
2:56 PM 64.9 °F 53.1 °F 65% 30.01 in 10.0 mi North 10.4 mph - N/A   Mostly Cloudy
3:56 PM 64.0 °F 51.1 °F 63% 30.01 in 10.0 mi North 4.6 mph - N/A   Mostly Cloudy
4:56 PM 64.0 °F 52.0 °F 65% 30.01 in 10.0 mi NNE 6.9 mph - N/A   Mostly Cloudy
5:56 PM 63.0 °F 51.1 °F 65% 30.01 in 10.0 mi NNE 8.1 mph - N/A   Overcast
6:56 PM 63.0 °F 48.9 °F 60% 30.01 in 10.0 mi NNE 10.4 mph - N/A   Mostly Cloudy
7:56 PM 60.1 °F 50.0 °F 69% 30.02 in 10.0 mi NE 8.1 mph - N/A   Mostly Cloudy
8:56 PM 55.0 °F 48.0 °F 77% 30.03 in 10.0 mi NNE 5.8 mph - N/A   Partly Cloudy
9:56 PM 52.0 °F 46.9 °F 83% 30.05 in 10.0 mi NNE 4.6 mph - N/A   Partly Cloudy
10:56 PM 51.1 °F 46.9 °F 86% 30.05 in 10.0 mi Calm Calm - N/A   Partly Cloudy
11:56 PM 46.9 °F 46.0 °F 97% 30.06 in 10.0 mi Calm Calm - N/A   Clear